Location: Observatoires du Mont Megantic
(45.4500°N, 71.1500°W)
Time: 23:46:57
(UTC-05:00)

Amateur Radio Satellites - All Passes

Search period start: 20 January 2018 23:16
Search period end: 21 January 2018 23:16
Location: Observatoires du Mont Megantic, 45.4500°N, 71.1500°W

Satellite Date Start Highest point End Downlink Frequencies (MHz)
Time Altitude Azimuth
UNISAT 6 20 Jan 23:18:18 23:20:22 13° 302° (WNW) 23:22:27 437.425
NO-84 20 Jan 23:23:51 23:26:40 75° 220° (SW) 23:29:36 435.350 FM
PRISM 20 Jan 23:31:00 23:34:27 27° 293° (WNW) 23:37:55 437.425
POLYITAN 1 20 Jan 23:39:51 23:44:06 57° 101° (E) 23:48:18 437.675
NANOSAT C BR1 20 Jan 23:55:34 23:59:51 75° 103° (ESE) 00:04:06 145.865
SPROUT 20 Jan 23:58:46 00:02:39 35° 263° (W) 00:06:35 437.525
VELOX 1 21 Jan 00:00:29 00:04:48 61° 258° (WSW) 00:09:10 145.980
BUGSAT 1 21 Jan 00:06:22 00:09:33 20° 93° (E) 00:12:43 437.445
UKube-1 21 Jan 00:06:24 00:09:38 21° 64° (ENE) 00:12:52 .
nSIGHT-1 21 Jan 00:07:47 00:10:34 27° 8° (N) 00:13:21 .
AIST 2D 21 Jan 00:08:03 00:10:15 16° 294° (WNW) 00:12:28 435.315
QB50P2 21 Jan 00:09:35 00:13:50 61° 287° (WNW) 00:18:03 145.880/145.840
DX 1 21 Jan 00:17:05 00:21:09 42° 70° (ENE) 00:25:14 434.975-435.025
ISS 21 Jan 00:20:31 00:23:24 28° 7° (N) 00:26:17 437.550
O/OREOS (USA 219) 21 Jan 00:20:57 00:25:28 85° 112° (ESE) 00:29:58 437.305
50 SAT 21 Jan 00:33:53 00:36:51 50° 74° (ENE) 00:39:52 437.505
Gurwin Techsat 1B 21 Jan 00:39:25 00:43:35 23° 93° (E) 00:47:43 435.225
DUCHIFAT 1 21 Jan 00:39:32 00:43:35 43° 289° (WNW) 00:47:36 145.980
EO-79 21 Jan 00:40:51 00:44:42 33° 291° (WNW) 00:48:30 145.935-145.965
YUBILEINY 21 Jan 00:49:03 00:56:03 26° 298° (WNW) 01:03:06 435.215
Oscar 19 21 Jan 00:53:38 00:58:28 39° 97° (E) 01:03:15 437.125/150
AO-91 21 Jan 01:06:19 01:10:41 61° 101° (ESE) 01:15:31 145.960
POLYITAN 1 21 Jan 01:16:47 01:19:25 16° 298° (WNW) 01:22:02 437.675
ITUPSAT 1 21 Jan 01:22:47 01:26:35 24° 63° (ENE) 01:30:25 437.325
AO-7 21 Jan 01:31:41 01:35:31 14° 85° (E) 01:39:20 .
NANOSAT C BR1 21 Jan 01:33:05 01:34:57 13° 300° (WNW) 01:36:49 145.865
BUGSAT 1 21 Jan 01:41:03 01:45:02 40° 290° (WNW) 01:49:00 437.445
UKube-1 21 Jan 01:41:20 01:45:23 41° 261° (W) 01:49:28 .
nSIGHT-1 21 Jan 01:43:53 01:47:04 78° 26° (NNE) 01:50:15 .
MOZHAYETS 4 21 Jan 01:52:51 01:57:27 73° 76° (ENE) 02:02:07
DX 1 21 Jan 01:54:19 01:57:30 20° 267° (W) 02:00:42 434.975-435.025
ISS 21 Jan 01:56:58 02:00:15 72° 27° (NNE) 02:03:31 437.550
CUBESAT XI-V 21 Jan 01:57:02 02:00:42 23° 64° (ENE) 02:04:21 437.345
BEESAT 21 Jan 02:01:26 02:06:04 54° 71° (ENE) 02:10:45 436.000
O/OREOS (USA 219) 21 Jan 02:03:06 02:05:30 14° 313° (NW) 02:07:54 437.305
Gurwin Techsat 1B 21 Jan 02:18:40 02:23:49 52° 290° (WNW) 02:28:56 435.225
Oscar 19 21 Jan 02:33:12 02:37:39 30° 296° (WNW) 02:42:05 437.125/150
AO-91 21 Jan 02:43:59 02:46:49 17° 296° (WNW) 02:49:48 145.960
ITUPSAT 1 21 Jan 02:59:37 03:04:09 43° 261° (W) 03:08:45 437.325
nSIGHT-1 21 Jan 03:20:50 03:22:53 16° 225° (SW) 03:24:56 .
AO-7 21 Jan 03:21:27 03:29:49 69° 105° (ESE) 03:38:07 .
KKS-1 21 Jan 03:22:29 03:26:08 26° 65° (ENE) 03:29:48 437.445
MOZHAYETS 4 21 Jan 03:32:58 03:35:08 13° 272° (W) 03:37:18
CUBESAT XI-V 21 Jan 03:33:19 03:37:47 44° 261° (W) 03:42:17 437.345
ISS 21 Jan 03:34:04 03:36:25 18° 224° (SW) 03:38:45 437.550
ITAMSAT 1 21 Jan 03:38:47 03:43:59 69° 103° (ESE) 03:49:10 435.822/435.867
STARS 21 Jan 03:39:16 03:41:59 16° 61° (ENE) 03:44:42 437.465
BEESAT 21 Jan 03:40:54 03:44:10 18° 268° (W) 03:47:28 436.000
DOVE 4 21 Jan 03:41:20 03:44:37 20° 93° (E) 03:48:00 437.250
SO-50 21 Jan 04:45:13 04:49:20 38° 118° (ESE) 04:53:32 436.795
FALCONSAT 3 21 Jan 04:50:01 04:52:17 16° 172° (S) 04:54:35 435.103
STRAND 1 21 Jan 04:57:25 05:00:48 18° 59° (ENE) 05:04:12 437.568
KKS-1 21 Jan 04:58:32 05:02:32 34° 263° (W) 05:06:35 437.445
KAITUO 1B 21 Jan 05:00:01 05:01:32 12° 90° (E) 05:03:04 145.475/437.950
XW-2F 21 Jan 05:01:12 05:03:40 17° 92° (E) 05:06:08 145.980 - 146.000
NUDT-PHONESAT 21 Jan 05:10:10 05:12:21 15° 91° (E) 05:14:31 437.300
XW-2D 21 Jan 05:10:32 05:13:38 24° 95° (E) 05:16:42 145.860 - 145.880
HO-68 21 Jan 05:11:54 05:15:41 15° 86° (E) 05:19:26 435.675
CUTE-I 21 Jan 05:13:19 05:17:35 24° 93° (E) 05:21:50 437.470
STARS 21 Jan 05:13:35 05:17:52 58° 259° (WSW) 05:22:11 437.465
AO-7 21 Jan 05:14:52 05:22:01 33° 306° (NW) 05:29:09 .
M-CUBED/EXP-1 PRIME 21 Jan 05:17:24 05:20:43 56° 293° (WNW) 05:23:54 437.505
DOVE 4 21 Jan 05:18:24 05:22:27 41° 289° (WNW) 05:26:42 437.250
ITAMSAT 1 21 Jan 05:19:24 05:22:55 19° 301° (WNW) 05:26:26 435.822/435.867
XW-2B 21 Jan 05:27:52 05:31:21 36° 97° (E) 05:34:49 145.730 - 145.750
RS-15 21 Jan 05:43:43 05:50:41 17° 95° (E) 05:57:35 29.354- 29.394
LilacSat-2 21 Jan 05:56:02 05:59:51 90° 297° (WNW) 06:03:36 437.200
FO-29 21 Jan 05:57:09 06:02:55 33° 65° (ENE) 06:08:09 435.910
XW-2C 21 Jan 05:58:02 06:01:49 88° 104° (ESE) 06:05:33 145.795 - 145.815
SEEDS 21 Jan 06:22:29 06:26:02 27° 95° (E) 06:29:33 437.485
SO-50 21 Jan 06:25:51 06:29:52 31° 317° (NW) 06:33:57 436.795
FALCONSAT 3 21 Jan 06:28:20 06:30:38 16° 188° (S) 06:32:56 435.103
KAITUO 1B 21 Jan 06:32:13 06:35:48 50° 287° (WNW) 06:39:21 145.475/437.950
STRAND 1 21 Jan 06:34:24 06:39:27 68° 258° (WSW) 06:44:33 437.568
XW-2F 21 Jan 06:34:27 06:37:55 36° 289° (WNW) 06:41:20 145.980 - 146.000
CUTE 1.7 + AOD 2 21 Jan 06:35:03 06:39:14 61° 100° (E) 06:43:22 437.475
NUDT-PHONESAT 21 Jan 06:42:55 06:46:22 39° 289° (WNW) 06:49:47 437.300
XW-2D 21 Jan 06:44:36 06:47:46 26° 292° (WNW) 06:50:53 145.860 - 145.880
CUBEBUG 2 21 Jan 06:49:07 06:53:50 58° 100° (E) 06:58:30 437.445
CUTE-I 21 Jan 06:52:46 06:57:53 49° 291° (WNW) 07:02:59 437.470
UWE-3 21 Jan 06:54:13 06:58:35 37° 97° (E) 07:02:52 435.000/436.395/437.385
HO-68 21 Jan 06:57:18 07:04:30 79° 105° (ESE) 07:11:40 435.675
XW-2A 21 Jan 07:00:08 07:02:45 21° 94° (E) 07:05:19 145.665 - 145.685
XW-2B 21 Jan 07:02:40 07:05:16 18° 295° (WNW) 07:07:51 145.730 - 145.750
UNISAT 6 21 Jan 07:06:43 07:08:36 13° 58° (ENE) 07:10:30 437.425
ZACube-1 21 Jan 07:17:28 07:21:38 34° 96° (E) 07:25:44 437.345
AO-73 21 Jan 07:24:04 07:28:15 35° 96° (E) 07:32:20 145.935
AAUSAT CUBESAT 2 21 Jan 07:38:23 07:42:29 78° 102° (ESE) 07:46:34 437.432
FO-29 21 Jan 07:41:19 07:47:51 48° 260° (W) 07:53:42 435.910
RS-15 21 Jan 07:48:40 08:00:48 69° 117° (ESE) 08:12:47 29.354- 29.394
Oscar 11 21 Jan 07:56:57 08:01:09 47° 99° (E) 08:05:17 .
SEEDS 21 Jan 07:58:05 08:01:40 29° 292° (WNW) 08:05:14 437.485
CUTE 1.7 + AOD 2 21 Jan 08:12:16 08:14:34 14° 298° (WNW) 08:16:51 437.475
DELFI C3 21 Jan 08:13:52 08:15:42 13° 90° (E) 08:17:32 145.870
TIGRISAT 21 Jan 08:24:49 08:29:11 62° 73° (ENE) 08:33:42 435.000
CUBEBUG 2 21 Jan 08:26:43 08:30:00 19° 298° (WNW) 08:33:16 437.445
UWE-3 21 Jan 08:30:57 08:34:51 26° 294° (WNW) 08:38:40 435.000/436.395/437.385
XW-2A 21 Jan 08:32:39 08:35:23 23° 291° (WNW) 08:38:05 145.665 - 145.685
UNISAT 6 21 Jan 08:40:09 08:44:35 84° 254° (WSW) 08:49:11 437.425
HO-68 21 Jan 08:46:03 08:51:30 24° 305° (NW) 08:56:58 435.675
PRISM 21 Jan 08:46:53 08:50:18 27° 67° (ENE) 08:53:43 437.425
Max Valier Satellite 21 Jan 08:48:19 08:51:06 20° 93° (E) 08:53:51 145.860
O/OREOS (USA 219) 21 Jan 08:49:53 08:53:46 28° 56° (NE) 08:57:38 437.305
ZACube-1 21 Jan 08:53:56 08:57:47 27° 294° (WNW) 09:01:34 437.345
YUBILEINY 21 Jan 08:57:07 09:05:24 44° 71° (ENE) 09:13:35 435.215
BEESAT 3 21 Jan 08:59:06 09:02:49 39° 119° (ESE) 09:06:34 437.485
AO-73 21 Jan 09:00:32 09:04:19 26° 294° (WNW) 09:08:03 145.935
EO-88 21 Jan 09:06:14 09:09:02 21° 94° (E) 09:11:49 145.990 - 145.960
AIST 2D 21 Jan 09:10:40 09:13:09 18° 67° (ENE) 09:15:39 435.315
AAUSAT CUBESAT 2 21 Jan 09:16:03 09:17:19 11° 300° (WNW) 09:18:35 437.432
QB50P2 21 Jan 09:30:17 09:32:37 15° 61° (ENE) 09:34:58 145.880/145.840
PCSat 21 Jan 09:32:39 09:38:01 71° 119° (ESE) 09:43:26 145.827
Oscar 11 21 Jan 09:33:54 09:36:57 19° 296° (WNW) 09:39:58 .
DELFI C3 21 Jan 09:46:56 09:50:45 54° 287° (WNW) 09:54:35 145.870
BEESAT 2 21 Jan 09:48:02 09:51:40 35° 117° (ESE) 09:55:22 435.950
DUCHIFAT 1 21 Jan 09:58:33 10:01:31 19° 64° (ENE) 10:04:31 145.980
EO-79 21 Jan 09:59:43 10:03:10 25° 66° (ENE) 10:06:38 145.935-145.965
RS-15 21 Jan 10:02:14 10:14:03 49° 323° (NW) 10:25:36 29.354- 29.394
TIGRISAT 21 Jan 10:03:54 10:06:20 14° 271° (W) 10:08:48 435.000
ESTCUBE 1 21 Jan 10:15:06 10:17:59 17° 91° (E) 10:20:52 437.505/2401.250
Max Valier Satellite 21 Jan 10:21:41 10:24:57 30° 291° (WNW) 10:28:12 145.860
PRISM 21 Jan 10:21:59 10:25:29 28° 264° (W) 10:29:00 437.425
LO-87 21 Jan 10:24:08 10:27:04 23° 94° (E) 10:29:59 145.935 - 145.965
O/OREOS (USA 219) 21 Jan 10:29:10 10:33:12 34° 254° (WSW) 10:37:13 437.305
POLYITAN 1 21 Jan 10:33:58 10:38:07 55° 72° (ENE) 10:42:18 437.675
BEESAT 3 21 Jan 10:37:05 10:40:27 25° 317° (NW) 10:43:50 437.485
Oscar 19 21 Jan 10:37:29 10:39:09 11° 54° (NE) 10:40:48 437.125/150
EO-88 21 Jan 10:39:32 10:42:40 28° 291° (WNW) 10:45:47 145.990 - 145.960
AIST 2D 21 Jan 10:42:58 10:46:06 30° 264° (W) 10:49:16 435.315
NANOSAT C BR1 21 Jan 10:49:08 10:53:20 71° 74° (ENE) 10:57:34 145.865
YUBILEINY 21 Jan 10:54:05 11:02:12 45° 273° (W) 11:10:16 435.215
BUGSAT 1 21 Jan 10:58:16 11:01:11 19° 64° (ENE) 11:04:08 437.445
QB50P2 21 Jan 11:03:42 11:07:54 63° 259° (W) 11:12:08 145.880/145.840
PCSat 21 Jan 11:17:36 11:21:57 24° 319° (NW) 11:26:20 145.827
BEESAT 2 21 Jan 11:25:54 11:29:25 28° 316° (NW) 11:32:59 435.950
AO-85 21 Jan 11:30:51 11:34:43 53° 120° (ESE) 11:38:53 145.980
DUCHIFAT 1 21 Jan 11:32:50 11:36:51 44° 261° (W) 11:40:56 145.980
SO-50 21 Jan 11:34:23 11:37:11 15° 31° (NNE) 11:40:00 436.795
EO-79 21 Jan 11:34:58 11:38:46 33° 263° (W) 11:42:38 145.935-145.965
SPROUT 21 Jan 11:41:41 11:45:32 31° 96° (E) 11:49:22 437.525
VELOX 1 21 Jan 11:48:40 11:51:59 21° 93° (E) 11:55:17 145.980
ESTCUBE 1 21 Jan 11:50:44 11:55:07 53° 288° (WNW) 11:59:27 437.505/2401.250
LO-87 21 Jan 11:57:22 12:00:25 26° 291° (WNW) 12:03:27 145.935 - 145.965
Gurwin Techsat 1B 21 Jan 12:02:20 12:07:21 45° 68° (ENE) 12:12:24 435.225
AO-91 21 Jan 12:06:33 12:09:50 55° 73° (ENE) 12:13:18 145.960
POLYITAN 1 21 Jan 12:11:50 12:14:13 15° 270° (W) 12:16:39 437.675
Oscar 19 21 Jan 12:12:22 12:17:31 71° 73° (ENE) 12:22:44 437.125/150
RS-15 21 Jan 12:20:05 12:30:21 30° 356° (N) 12:40:17 29.354- 29.394
NANOSAT C BR1 21 Jan 12:28:10 12:29:31 11° 272° (W) 12:30:52 145.865
AO-7 21 Jan 12:32:05 12:38:54 29° 52° (NE) 12:45:44 .
BUGSAT 1 21 Jan 12:32:22 12:36:14 42° 261° (W) 12:40:11 437.445
AO-85 21 Jan 13:12:12 13:15:28 22° 322° (NW) 13:18:56 145.980
SO-50 21 Jan 13:13:49 13:18:30 66° 51° (NE) 13:23:14 436.795
SPROUT 21 Jan 13:17:43 13:21:19 27° 293° (WNW) 13:24:54 437.525
50 SAT 21 Jan 13:17:43 13:20:25 26° 97° (E) 13:23:07 437.505
ITAMSAT 1 21 Jan 13:21:32 13:25:11 20° 60° (ENE) 13:28:51 435.822/435.867
VELOX 1 21 Jan 13:24:27 13:28:35 41° 290° (WNW) 13:32:43 145.980
UKube-1 21 Jan 13:26:00 13:29:38 26° 95° (E) 13:33:14 .
DX 1 21 Jan 13:38:36 13:42:54 57° 101° (E) 13:47:10 434.975-435.025
Gurwin Techsat 1B 21 Jan 13:43:04 13:47:28 26° 266° (W) 13:51:55 435.225
MOZHAYETS 4 21 Jan 13:47:02 13:49:35 15° 89° (E) 13:52:07
Oscar 19 21 Jan 13:54:12 13:57:22 16° 270° (W) 14:00:32 437.125/150
BEESAT 21 Jan 14:01:33 14:03:03 11° 88° (E) 14:04:33 436.000
AO-7 21 Jan 14:22:32 14:30:54 78° 253° (WSW) 14:39:20 .
M-CUBED/EXP-1 PRIME 21 Jan 14:30:31 14:33:58 25° 62° (ENE) 14:37:15 437.505
RS-15 21 Jan 14:35:53 14:47:02 41° 30° (NNE) 14:57:36 29.354- 29.394
DOVE 4 21 Jan 14:49:09 14:52:38 25° 67° (ENE) 14:56:03 437.250
50 SAT 21 Jan 14:49:56 14:51:56 16° 294° (WNW) 14:53:55 437.505
SO-50 21 Jan 14:55:22 14:58:31 18° 249° (WSW) 15:01:40 436.795
ITUPSAT 1 21 Jan 14:57:33 15:02:04 39° 98° (E) 15:06:34 437.325
ITAMSAT 1 21 Jan 14:59:04 15:04:11 63° 258° (WSW) 15:09:19 435.822/435.867
UKube-1 21 Jan 15:01:50 15:05:40 32° 292° (WNW) 15:09:29 .
DX 1 21 Jan 15:15:56 15:18:38 16° 299° (WNW) 15:21:20 434.975-435.025
MOZHAYETS 4 21 Jan 15:22:35 15:27:12 65° 286° (WNW) 15:31:45
CUBESAT XI-V 21 Jan 15:27:24 15:31:42 38° 97° (E) 15:35:58 437.345
BEESAT 21 Jan 15:36:38 15:41:27 86° 289° (WNW) 15:46:15 436.000
HO-68 21 Jan 15:43:58 15:48:14 17° 49° (NE) 15:52:29 435.675
XW-2F 21 Jan 15:44:50 15:46:30 13° 63° (ENE) 15:48:11 145.980 - 146.000
NUDT-PHONESAT 21 Jan 15:52:30 15:53:24 11° 61° (ENE) 15:54:18 437.300
XW-2D 21 Jan 15:54:05 15:56:40 18° 65° (ENE) 15:59:15 145.860 - 145.880
M-CUBED/EXP-1 PRIME 21 Jan 16:04:15 16:08:13 35° 256° (WSW) 16:11:57 437.505
XW-2B 21 Jan 16:11:02 16:14:12 25° 68° (ENE) 16:17:22 145.730 - 145.750
NO-84 21 Jan 16:16:34 16:19:23 31° 136° (SE) 16:22:02 435.350 FM
AO-7 21 Jan 16:20:02 16:24:59 17° 273° (W) 16:29:57 .
DOVE 4 21 Jan 16:26:28 16:30:15 30° 264° (W) 16:33:57 437.250
PCSat 21 Jan 16:35:42 16:39:39 20° 37° (NE) 16:43:35 145.827
ITUPSAT 1 21 Jan 16:35:43 16:39:43 27° 296° (WNW) 16:43:42 437.325
CUTE-I 21 Jan 16:37:00 16:42:04 48° 69° (ENE) 16:47:10 437.470
LilacSat-2 21 Jan 16:39:22 16:43:10 58° 74° (ENE) 16:46:58 437.200
XW-2C 21 Jan 16:40:43 16:44:28 55° 74° (ENE) 16:48:13 145.795 - 145.815
KKS-1 21 Jan 16:46:40 16:50:47 36° 98° (E) 16:54:54 437.445
RS-15 21 Jan 16:49:01 17:00:49 82° 238° (WSW) 17:11:57 29.354- 29.394
STARS 21 Jan 17:01:03 17:04:25 21° 93° (E) 17:07:46 437.465
CUBESAT XI-V 21 Jan 17:05:07 17:08:53 25° 295° (WNW) 17:12:37 437.345
KAITUO 1B 21 Jan 17:13:18 17:17:04 85° 257° (WSW) 17:20:50 145.475/437.950
BEESAT 3 21 Jan 17:13:22 17:17:12 47° 50° (NE) 17:20:56 437.485
SEEDS 21 Jan 17:16:03 17:19:31 25° 67° (ENE) 17:22:58 437.485
XW-2F 21 Jan 17:16:23 17:20:08 59° 259° (W) 17:23:54 145.980 - 146.000
BEESAT 21 Jan 17:16:30 17:18:29 12° 303° (WNW) 17:20:27 436.000
NUDT-PHONESAT 21 Jan 17:22:58 17:26:40 69° 258° (WSW) 17:30:24 437.300
XW-2D 21 Jan 17:26:57 17:30:33 39° 262° (W) 17:34:09 145.860 - 145.880
HO-68 21 Jan 17:27:40 17:34:47 72° 69° (ENE) 17:41:55 435.675
CUTE 1.7 + AOD 2 21 Jan 17:29:15 17:33:25 56° 73° (ENE) 17:37:36 437.475
XW-2A 21 Jan 17:34:29 17:35:38 11° 63° (ENE) 17:36:46 145.665 - 145.685
XW-2B 21 Jan 17:45:02 17:48:17 26° 265° (W) 17:51:32 145.730 - 145.750
CUBEBUG 2 21 Jan 17:48:54 17:53:13 59° 73° (ENE) 17:57:43 437.445
UWE-3 21 Jan 17:52:54 17:57:00 38° 69° (ENE) 18:01:14 435.000/436.395/437.385
NO-84 21 Jan 17:53:48 17:56:31 30° 333° (NNW) 17:59:06 435.350 FM
BEESAT 2 21 Jan 18:03:08 18:07:00 43° 49° (NE) 18:10:48 435.950
ZACube-1 21 Jan 18:14:54 18:18:56 34° 69° (ENE) 18:23:04 437.345
LilacSat-2 21 Jan 18:16:25 18:17:48 12° 271° (W) 18:19:10 437.200
XW-2C 21 Jan 18:17:27 18:18:59 12° 271° (W) 18:20:30 145.795 - 145.815
CUTE-I 21 Jan 18:18:04 18:22:21 25° 267° (W) 18:26:39 437.470
PCSat 21 Jan 18:18:22 18:23:50 89° 58° (ENE) 18:29:15 145.827
AO-85 21 Jan 18:19:20 18:22:51 20° 36° (NE) 18:26:32 145.980
AO-73 21 Jan 18:21:09 18:25:12 35° 68° (ENE) 18:29:20 145.935
KKS-1 21 Jan 18:23:32 18:27:11 25° 295° (WNW) 18:30:49 437.445
AAUSAT CUBESAT 2 21 Jan 18:29:56 18:34:01 66° 74° (ENE) 18:38:07 437.432
STARS 21 Jan 18:36:45 18:40:55 41° 290° (WNW) 18:45:03 437.465
STRAND 1 21 Jan 18:42:44 18:47:25 35° 97° (E) 18:52:05 437.568
FO-29 21 Jan 18:49:09 18:52:31 17° 90° (E) 18:55:53 435.910
SEEDS 21 Jan 18:51:17 18:55:04 32° 264° (W) 18:58:51 437.485
BEESAT 3 21 Jan 18:51:41 18:54:21 18° 248° (WSW) 18:57:00 437.485
Oscar 11 21 Jan 18:53:25 18:57:35 46° 71° (ENE) 19:01:46 .
DELFI C3 21 Jan 19:02:15 19:03:14 11° 61° (ENE) 19:04:13 145.870
RS-15 21 Jan 19:03:21 19:11:15 22° 262° (W) 19:18:58 29.354- 29.394
XW-2A 21 Jan 19:04:32 19:07:51 51° 259° (W) 19:11:13 145.665 - 145.685
CUTE 1.7 + AOD 2 21 Jan 19:07:11 19:09:35 15° 270° (W) 19:11:59 437.475
HO-68 21 Jan 19:17:38 19:23:08 24° 269° (W) 19:28:41 435.675
CUBEBUG 2 21 Jan 19:27:40 19:30:15 15° 271° (W) 19:32:53 437.445
Max Valier Satellite 21 Jan 19:29:51 19:31:47 14° 63° (ENE) 19:33:44 145.860
UWE-3 21 Jan 19:29:57 19:33:33 24° 267° (W) 19:37:15 435.000/436.395/437.385
NO-84 21 Jan 19:32:55 19:34:21 13° 354° (N) 19:35:47 435.350 FM
BEESAT 2 21 Jan 19:41:25 19:44:25 21° 247° (WSW) 19:47:23 435.950
EO-88 21 Jan 19:46:35 19:48:29 14° 64° (ENE) 19:50:23 145.990 - 145.960
ZACube-1 21 Jan 19:51:29 19:55:14 26° 266° (W) 19:59:05 437.345
nSIGHT-1 21 Jan 19:57:41 20:00:40 40° 143° (SE) 20:03:39 .
AO-73 21 Jan 19:57:44 20:01:28 26° 267° (W) 20:05:16 145.935
AO-85 21 Jan 19:58:58 20:03:55 88° 55° (NE) 20:09:10 145.980
PCSat 21 Jan 20:03:41 20:06:26 14° 257° (WSW) 20:09:11 145.827
AAUSAT CUBESAT 2 21 Jan 20:08:22 20:09:53 12° 271° (W) 20:11:24 437.432
ISS 21 Jan 20:14:23 20:17:26 40° 143° (SE) 20:20:31 437.550
TIGRISAT 21 Jan 20:15:54 20:17:47 12° 87° (E) 20:19:40 435.000
STRAND 1 21 Jan 20:21:58 20:26:33 33° 294° (WNW) 20:31:06 437.568
UNISAT 6 21 Jan 20:30:15 20:33:36 19° 91° (E) 20:36:54 437.425
Oscar 11 21 Jan 20:30:57 20:33:57 18° 269° (W) 20:36:58 .
FO-29 21 Jan 20:33:01 20:38:09 61° 288° (WNW) 20:43:18 435.910
DELFI C3 21 Jan 20:33:29 20:37:23 75° 258° (WSW) 20:41:19 145.870
Max Valier Satellite 21 Jan 21:01:32 21:05:11 50° 261° (W) 21:08:51 145.860
LO-87 21 Jan 21:02:55 21:04:48 14° 64° (ENE) 21:06:41 145.935 - 145.965
NO-84 21 Jan 21:10:29 21:12:24 16° 16° (NNE) 21:14:21 435.350 FM
ESTCUBE 1 21 Jan 21:16:30 21:19:53 21° 64° (ENE) 21:23:16 437.505/2401.250
EO-88 21 Jan 21:18:11 21:21:43 47° 261° (W) 21:25:16 145.990 - 145.960
nSIGHT-1 21 Jan 21:33:50 21:36:51 40° 342° (NNW) 21:39:51 .
AO-85 21 Jan 21:41:04 21:43:47 15° 251° (WSW) 21:46:34 145.980
TIGRISAT 21 Jan 21:50:18 21:55:02 80° 284° (WNW) 21:59:43 435.000
ISS 21 Jan 21:50:48 21:53:55 41° 341° (NNW) 21:57:03 437.550
PRISM 21 Jan 22:00:18 22:03:56 30° 97° (E) 22:07:33 437.425
YUBILEINY 21 Jan 22:00:40 22:08:56 47° 88° (E) 22:17:10 435.215
AIST 2D 21 Jan 22:05:56 22:08:05 15° 92° (E) 22:10:14 435.315
UNISAT 6 21 Jan 22:06:00 22:10:35 52° 288° (WNW) 22:15:07 437.425
LO-87 21 Jan 22:34:23 22:37:48 45° 261° (W) 22:41:16 145.935 - 145.965
SPROUT 21 Jan 22:36:47 22:40:31 31° 68° (ENE) 22:44:19 437.525
QB50P2 21 Jan 22:47:01 22:49:59 18° 92° (E) 22:52:56 145.880/145.840
NO-84 21 Jan 22:47:08 22:49:57 76° 37° (NE) 22:52:51 435.350 FM
VELOX 1 21 Jan 22:47:47 22:51:21 25° 65° (ENE) 22:54:54 145.980
ESTCUBE 1 21 Jan 22:52:02 22:56:22 45° 261° (W) 23:00:44 437.505/2401.250
O/OREOS (USA 219) 21 Jan 23:05:13 23:08:29 20° 102° (ESE) 23:11:47 437.305
nSIGHT-1 21 Jan 23:10:49 23:13:32 25° 1° (N) 23:16:15 .
